Location: Plainartige
(45.6866°N, 1.7993°E)
Time: 17:30:31
(UTC+00:00)

Tiros 1 - Pass Details

Date: 05 June 2022
Orbit: 629 x 663 km, 48.4° (Epoch: 05 July)

Event Time Altitude Azimuth Distance (km) Brightness Sun altitude
Rises 00:00:24 0° 279° (W) 2,914 10.6 -21.8°
Reaches altitude 10° 00:02:45 10° 283° (WNW) 2,007 9.8 -21.7°
Maximum altitude 00:07:19 62° 4° (N) 711 7.5 -21.7°
Drops below altitude 10° 00:11:56 10° 86° (E) 2,017 9.8 -21.6°
Sets 00:14:17 0° 89° (E) 2,930 10.6 -21.6°
